Time,TemperatureF,DewpointF,PressureIn,WindDirection,WindDirectionDegrees,WindSpeedMPH,WindSpeedGustMPH,Humidity,HourlyPrecipIn,Conditions,Clouds,dailyrainin,SoftwareType,DateUTC
2013-02-22 00:02:00,55.0,52.1,30.13,ENE,61,7.0,9.0,90,0.00,,---,0.00,VWS V14.01,2013-02-22 05:02:00,
2013-02-22 00:07:00,55.1,52.2,30.13,ENE,60,6.0,10.0,90,0.00,,---,0.00,VWS V14.01,2013-02-22 05:07:00,
2013-02-22 00:12:00,55.4,52.2,30.13,ENE,68,6.0,11.0,89,0.00,,---,0.00,VWS V14.01,2013-02-22 05:12:00,
2013-02-22 00:17:00,55.4,52.2,30.13,ENE,77,7.0,10.0,89,0.00,,---,0.00,VWS V14.01,2013-02-22 05:17:00,
2013-02-22 00:22:00,55.4,52.2,30.13,NE,44,7.0,10.0,89,0.00,,---,0.00,VWS V14.01,2013-02-22 05:22:00,
2013-02-22 00:32:00,54.9,51.7,30.13,NE,51,5.0,8.0,89,0.00,,---,0.00,VWS V14.01,2013-02-22 05:32:00,
2013-02-22 00:37:00,54.7,51.8,30.13,NE,41,6.0,10.0,90,0.00,,---,0.00,VWS V14.01,2013-02-22 05:37:00,
2013-02-22 00:42:00,54.7,51.8,30.13,ENE,65,7.0,11.0,90,0.00,,---,0.00,VWS V14.01,2013-02-22 05:42:00,
2013-02-22 00:47:00,54.6,51.7,30.13,ENE,60,7.0,9.0,90,0.00,,---,0.00,VWS V14.01,2013-02-22 05:47:00,
2013-02-22 00:52:00,54.6,51.7,30.14,NE,51,7.0,10.0,90,0.00,,---,0.00,VWS V14.01,2013-02-22 05:52:00,
2013-02-22 01:02:00,54.5,51.6,30.14,ENE,74,5.0,7.0,90,0.00,,---,0.00,VWS V14.01,2013-02-22 06:02:00,
2013-02-22 01:07:00,54.4,51.5,30.14,ENE,58,5.0,6.0,90,0.00,,---,0.00,VWS V14.01,2013-02-22 06:07:00,
2013-02-22 01:17:00,54.3,51.1,30.14,ENE,67,6.0,8.0,89,0.00,,---,0.00,VWS V14.01,2013-02-22 06:17:00,
2013-02-22 01:22:00,54.2,50.7,30.14,ENE,62,5.0,9.0,88,0.00,,---,0.00,VWS V14.01,2013-02-22 06:22:00,
2013-02-22 01:27:00,54.2,50.4,30.14,NE,50,7.0,10.0,87,0.00,,---,0.00,VWS V14.01,2013-02-22 06:27:00,
2013-02-22 01:32:00,54.2,50.1,30.14,ENE,69,6.0,9.0,86,0.00,,---,0.00,VWS V14.01,2013-02-22 06:32:00,
2013-02-22 01:37:00,54.2,50.1,30.14,ENE,63,5.0,11.0,86,0.00,,---,0.00,VWS V14.01,2013-02-22 06:37:00,
2013-02-22 01:42:00,54.2,49.8,30.14,ENE,67,6.0,10.0,85,0.00,,---,0.00,VWS V14.01,2013-02-22 06:42:00,
2013-02-22 01:47:00,54.3,49.6,30.14,ENE,61,6.0,10.0,84,0.00,,---,0.00,VWS V14.01,2013-02-22 06:47:00,
2013-02-22 01:52:00,54.3,49.6,30.14,NE,46,8.0,11.0,84,0.00,,---,0.00,VWS V14.01,2013-02-22 06:52:00,
2013-02-22 01:57:00,54.4,49.0,30.13,ENE,65,6.0,11.0,82,0.00,,---,0.00,VWS V14.01,2013-02-22 06:57:00,
2013-02-22 02:02:00,54.4,48.7,30.13,East,82,8.0,11.0,81,0.00,,---,0.00,VWS V14.01,2013-02-22 07:02:00,
2013-02-22 02:07:00,54.5,48.8,30.13,ENE,59,6.0,12.0,81,0.00,,---,0.00,VWS V14.01,2013-02-22 07:07:00,
2013-02-22 02:12:00,54.5,48.5,30.14,ENE,74,7.0,11.0,80,0.00,,---,0.00,VWS V14.01,2013-02-22 07:12:00,
2013-02-22 02:17:00,54.5,48.5,30.14,ENE,63,9.0,11.0,80,0.00,,---,0.00,VWS V14.01,2013-02-22 07:17:00,
2013-02-22 02:27:00,54.6,47.9,30.13,ENE,67,7.0,12.0,78,0.00,,---,0.00,VWS V14.01,2013-02-22 07:27:00,
2013-02-22 02:32:00,54.7,47.6,30.14,ENE,63,6.0,13.0,77,0.00,,---,0.00,VWS V14.01,2013-02-22 07:32:00,
2013-02-22 02:42:00,54.7,47.3,30.13,ENE,72,5.0,13.0,76,0.00,,---,0.00,VWS V14.01,2013-02-22 07:42:00,
2013-02-22 02:47:00,54.8,47.0,30.13,ENE,67,9.0,13.0,75,0.00,,---,0.00,VWS V14.01,2013-02-22 07:47:00,
2013-02-22 02:52:00,54.9,47.1,30.13,ENE,72,11.0,13.0,75,0.00,,---,0.00,VWS V14.01,2013-02-22 07:52:00,
2013-02-22 02:57:00,54.9,47.1,30.13,ENE,68,9.0,15.0,75,0.00,,---,0.00,VWS V14.01,2013-02-22 07:57:00,
2013-02-22 03:02:00,54.9,47.1,30.13,ENE,69,9.0,12.0,75,0.00,,---,0.00,VWS V14.01,2013-02-22 08:02:00,
2013-02-22 03:07:00,55.1,47.0,30.13,ENE,65,10.0,14.0,74,0.00,,---,0.00,VWS V14.01,2013-02-22 08:07:00,
2013-02-22 03:12:00,55.0,47.2,30.13,NE,53,9.0,13.0,75,0.00,,---,0.00,VWS V14.01,2013-02-22 08:12:00,
2013-02-22 03:17:00,55.0,47.2,30.12,NE,43,8.0,13.0,75,0.00,,---,0.00,VWS V14.01,2013-02-22 08:17:00,
2013-02-22 03:22:00,55.0,47.2,30.12,ENE,72,8.0,15.0,75,0.00,,---,0.00,VWS V14.01,2013-02-22 08:22:00,
2013-02-22 03:32:00,55.2,47.4,30.13,ENE,63,5.0,15.0,75,0.00,,---,0.00,VWS V14.01,2013-02-22 08:32:00,
2013-02-22 03:37:00,55.3,47.5,30.13,ENE,65,7.0,11.0,75,0.00,,---,0.00,VWS V14.01,2013-02-22 08:37:00,
2013-02-22 03:42:00,55.4,47.3,30.13,NE,54,8.0,13.0,74,0.00,,---,0.00,VWS V14.01,2013-02-22 08:42:00,
2013-02-22 03:52:00,55.6,47.5,30.12,NE,54,9.0,14.0,74,0.00,,---,0.00,VWS V14.01,2013-02-22 08:52:00,
2013-02-22 03:57:00,55.7,47.5,30.13,ENE,65,5.0,11.0,74,0.00,,---,0.00,VWS V14.01,2013-02-22 08:57:00,
2013-02-22 04:02:00,55.8,47.7,30.13,NE,46,10.0,12.0,74,0.00,,---,0.00,VWS V14.01,2013-02-22 09:02:00,
2013-02-22 04:07:00,55.8,47.7,30.12,NE,51,9.0,12.0,74,0.00,,---,0.00,VWS V14.01,2013-02-22 09:07:00,
2013-02-22 04:12:00,55.9,47.7,30.11,ENE,67,10.0,14.0,74,0.00,,---,0.00,VWS V14.01,2013-02-22 09:12:00,
2013-02-22 04:22:00,55.7,47.9,30.12,ENE,66,7.0,11.0,75,0.00,,---,0.00,VWS V14.01,2013-02-22 09:22:00,
2013-02-22 04:27:00,55.6,47.8,30.12,NE,51,9.0,13.0,75,0.00,,---,0.00,VWS V14.01,2013-02-22 09:27:00,
2013-02-22 04:32:00,55.6,47.8,30.12,NE,55,7.0,15.0,75,0.00,,---,0.00,VWS V14.01,2013-02-22 09:32:00,
2013-02-22 04:37:00,55.6,47.8,30.12,ENE,65,8.0,11.0,75,0.00,,---,0.00,VWS V14.01,2013-02-22 09:37:00,
2013-02-22 04:42:00,55.7,47.9,30.12,NE,53,11.0,13.0,75,0.00,,---,0.00,VWS V14.01,2013-02-22 09:42:00,
2013-02-22 04:47:00,55.7,48.3,30.12,ENE,62,12.0,13.0,76,0.00,,---,0.00,VWS V14.01,2013-02-22 09:47:00,
2013-02-22 04:52:00,55.7,48.3,30.12,ENE,69,13.0,16.0,76,0.00,,---,0.00,VWS V14.01,2013-02-22 09:52:00,
2013-02-22 04:57:00,55.9,48.5,30.11,ENE,70,15.0,18.0,76,0.00,,---,0.00,VWS V14.01,2013-02-22 09:57:00,
2013-02-22 05:02:00,56.0,48.5,30.11,ENE,63,12.0,18.0,76,0.00,,---,0.00,VWS V14.01,2013-02-22 10:02:00,
2013-02-22 05:07:00,56.1,48.7,30.11,East,81,10.0,19.0,76,0.00,,---,0.00,VWS V14.01,2013-02-22 10:07:00,
2013-02-22 05:17:00,56.2,48.4,30.13,ENE,58,13.0,17.0,75,0.00,,---,0.00,VWS V14.01,2013-02-22 10:17:00,
2013-02-22 05:22:00,56.2,48.4,30.13,NNE,32,11.0,16.0,75,0.00,,---,0.00,VWS V14.01,2013-02-22 10:22:00,
2013-02-22 05:27:00,56.3,48.5,30.13,ENE,63,12.0,18.0,75,0.00,,---,0.00,VWS V14.01,2013-02-22 10:27:00,
2013-02-22 05:32:00,56.2,48.8,30.13,ENE,69,13.0,18.0,76,0.00,,---,0.00,VWS V14.01,2013-02-22 10:32:00,
2013-02-22 05:42:00,56.2,48.8,30.13,East,81,18.0,18.0,76,0.00,,---,0.00,VWS V14.01,2013-02-22 10:42:00,
2013-02-22 05:47:00,56.2,48.8,30.12,NE,51,9.0,18.0,76,0.00,,---,0.00,VWS V14.01,2013-02-22 10:47:00,
2013-02-22 05:52:00,56.1,48.7,30.13,NE,43,12.0,13.0,76,0.00,,---,0.00,VWS V14.01,2013-02-22 10:52:00,
2013-02-22 05:57:00,56.1,48.3,30.13,NE,46,13.0,18.0,75,0.00,,---,0.00,VWS V14.01,2013-02-22 10:57:00,
2013-02-22 06:02:00,56.0,48.5,30.13,NE,49,9.0,17.0,76,0.00,,---,0.00,VWS V14.01,2013-02-22 11:02:00,
2013-02-22 06:12:00,55.9,48.5,30.13,NE,34,8.0,16.0,76,0.00,,---,0.00,VWS V14.01,2013-02-22 11:12:00,
2013-02-22 06:17:00,55.8,48.0,30.14,ENE,63,9.0,17.0,75,0.00,,---,0.00,VWS V14.01,2013-02-22 11:17:00,
2013-02-22 06:22:00,55.8,48.4,30.15,ENE,65,11.0,17.0,76,0.00,,---,0.00,VWS V14.01,2013-02-22 11:22:00,
2013-02-22 06:32:00,55.6,48.2,30.15,ENE,72,12.0,18.0,76,0.00,,---,0.00,VWS V14.01,2013-02-22 11:32:00,
2013-02-22 06:42:00,55.5,48.4,30.15,ENE,63,12.0,18.0,77,0.00,,---,0.00,VWS V14.01,2013-02-22 11:42:00,
2013-02-22 06:52:00,55.3,48.2,30.14,NE,51,13.0,24.0,77,0.00,,---,0.00,VWS V14.01,2013-02-22 11:52:00,
2013-02-22 07:02:00,54.8,48.4,30.15,ENE,69,21.0,25.0,79,0.00,,---,0.00,VWS V14.01,2013-02-22 12:02:00,
2013-02-22 07:07:00,54.6,48.6,30.15,ENE,67,14.0,22.0,80,0.00,,---,0.00,VWS V14.01,2013-02-22 12:07:00,
2013-02-22 07:12:00,54.4,48.4,30.15,NE,55,14.0,23.0,80,0.00,,---,0.00,VWS V14.01,2013-02-22 12:12:00,
2013-02-22 07:17:00,54.3,48.6,30.16,NE,56,20.0,22.0,81,0.00,,---,0.00,VWS V14.01,2013-02-22 12:17:00,
2013-02-22 07:22:00,54.0,48.3,30.15,ENE,65,15.0,27.0,81,0.00,,---,0.00,VWS V14.01,2013-02-22 12:22:00,
2013-02-22 07:27:00,53.9,48.2,30.16,NE,49,15.0,24.0,81,0.00,,---,0.00,VWS V14.01,2013-02-22 12:27:00,
2013-02-22 07:32:00,53.6,47.9,30.16,ENE,63,14.0,27.0,81,0.00,,---,0.00,VWS V14.01,2013-02-22 12:32:00,
2013-02-22 07:42:00,53.2,47.5,30.15,ENE,72,21.0,27.0,81,0.00,,---,0.00,VWS V14.01,2013-02-22 12:42:00,
2013-02-22 07:47:00,53.1,47.8,30.15,ENE,77,20.0,28.0,82,0.00,,---,0.00,VWS V14.01,2013-02-22 12:47:00,
2013-02-22 07:57:00,52.8,48.1,30.13,East,79,13.0,28.0,84,0.00,,---,0.00,VWS V14.01,2013-02-22 12:57:00,
2013-02-22 08:02:00,52.7,48.0,30.14,ENE,65,13.0,25.0,84,0.00,,---,0.00,VWS V14.01,2013-02-22 13:02:00,
2013-02-22 08:12:00,52.8,48.1,30.14,ENE,66,16.0,22.0,84,0.00,,---,0.00,VWS V14.01,2013-02-22 13:12:00,
2013-02-22 08:17:00,52.8,48.1,30.15,ENE,75,19.0,23.0,84,0.00,,---,0.00,VWS V14.01,2013-02-22 13:17:00,
2013-02-22 08:22:00,52.9,48.2,30.16,NE,53,20.0,24.0,84,0.00,,---,0.00,VWS V14.01,2013-02-22 13:22:00,
2013-02-22 08:27:00,53.0,48.3,30.17,NE,53,21.0,28.0,84,0.00,,---,0.00,VWS V14.01,2013-02-22 13:27:00,
2013-02-22 08:32:00,53.1,48.4,30.17,ENE,63,9.0,23.0,84,0.00,,---,0.00,VWS V14.01,2013-02-22 13:32:00,
2013-02-22 08:42:00,53.1,48.4,30.16,ENE,75,10.0,25.0,84,0.00,,---,0.00,VWS V14.01,2013-02-22 13:42:00,
2013-02-22 08:47:00,53.2,48.8,30.16,NE,49,12.0,22.0,85,0.00,,---,0.00,VWS V14.01,2013-02-22 13:47:00,
2013-02-22 08:52:00,53.3,48.9,30.16,NE,53,10.0,26.0,85,0.00,,---,0.00,VWS V14.01,2013-02-22 13:52:00,
2013-02-22 09:02:00,53.6,49.2,30.16,ENE,72,17.0,20.0,85,0.00,,---,0.00,VWS V14.01,2013-02-22 14:02:00,
2013-02-22 09:07:00,53.6,49.2,30.17,ENE,71,17.0,28.0,85,0.00,,---,0.00,VWS V14.01,2013-02-22 14:07:00,
2013-02-22 09:17:00,53.7,49.3,30.16,ENE,65,9.0,22.0,85,0.00,,---,0.00,VWS V14.01,2013-02-22 14:17:00,
2013-02-22 09:27:00,54.0,49.9,30.15,ENE,62,13.0,20.0,86,0.00,,---,0.00,VWS V14.01,2013-02-22 14:27:00,
2013-02-22 09:32:00,54.2,50.1,30.15,ENE,58,7.0,21.0,86,0.00,,---,0.00,VWS V14.01,2013-02-22 14:32:00,
2013-02-22 09:42:00,54.8,50.7,30.15,East,82,17.0,22.0,86,0.00,,---,0.00,VWS V14.01,2013-02-22 14:42:00,
2013-02-22 09:47:00,55.1,51.0,30.16,NE,53,10.0,22.0,86,0.00,,---,0.00,VWS V14.01,2013-02-22 14:47:00,
2013-02-22 09:57:00,55.2,51.1,30.15,ENE,65,13.0,22.0,86,0.00,,---,0.00,VWS V14.01,2013-02-22 14:57:00,
2013-02-22 10:02:00,55.2,51.1,30.15,ENE,68,9.0,19.0,86,0.00,,---,0.00,VWS V14.01,2013-02-22 15:02:00,
2013-02-22 10:12:00,55.1,51.0,30.15,ENE,58,12.0,18.0,86,0.00,,---,0.00,VWS V14.01,2013-02-22 15:12:00,
2013-02-22 10:17:00,55.0,51.2,30.15,NE,51,12.0,18.0,87,0.00,,---,0.00,VWS V14.01,2013-02-22 15:17:00,
2013-02-22 10:22:00,55.0,51.2,30.15,ENE,73,14.0,19.0,87,0.00,,---,0.00,VWS V14.01,2013-02-22 15:22:00,
2013-02-22 10:27:00,55.0,51.2,30.15,NE,55,15.0,20.0,87,0.00,,---,0.00,VWS V14.01,2013-02-22 15:27:00,
2013-02-22 10:32:00,55.0,51.2,30.16,ENE,69,11.0,19.0,87,0.00,,---,0.00,VWS V14.01,2013-02-22 15:32:00,
2013-02-22 10:37:00,55.1,51.3,30.16,ENE,57,12.0,20.0,87,0.00,,---,0.00,VWS V14.01,2013-02-22 15:37:00,
2013-02-22 10:42:00,55.2,51.7,30.15,ENE,65,12.0,21.0,88,0.00,,---,0.00,VWS V14.01,2013-02-22 15:42:00,
2013-02-22 10:47:00,55.4,51.6,30.16,ENE,61,10.0,20.0,87,0.00,,---,0.00,VWS V14.01,2013-02-22 15:47:00,
2013-02-22 10:52:00,55.5,51.7,30.16,ENE,60,18.0,19.0,87,0.00,,---,0.00,VWS V14.01,2013-02-22 15:52:00,
2013-02-22 10:57:00,55.6,52.1,30.16,NE,53,11.0,18.0,88,0.00,,---,0.00,VWS V14.01,2013-02-22 15:57:00,
2013-02-22 11:07:00,55.3,52.4,30.15,ENE,70,10.0,17.0,90,0.01,,---,0.01,VWS V14.01,2013-02-22 16:07:00,
2013-02-22 11:12:00,55.1,52.5,30.15,ENE,68,16.0,16.0,91,0.01,,---,0.01,VWS V14.01,2013-02-22 16:12:00,
2013-02-22 11:17:00,55.0,52.7,30.15,ENE,59,9.0,16.0,92,0.01,,---,0.01,VWS V14.01,2013-02-22 16:17:00,
2013-02-22 11:22:00,54.9,52.6,30.15,NE,40,8.0,15.0,92,0.01,,---,0.01,VWS V14.01,2013-02-22 16:22:00,
2013-02-22 11:32:00,54.9,52.9,30.15,ENE,67,8.0,14.0,93,0.02,,---,0.02,VWS V14.01,2013-02-22 16:32:00,
2013-02-22 11:37:00,54.9,52.9,30.15,NE,53,12.0,14.0,93,0.02,,---,0.02,VWS V14.01,2013-02-22 16:37:00,
2013-02-22 11:42:00,54.9,53.2,30.15,NE,46,10.0,13.0,94,0.02,,---,0.02,VWS V14.01,2013-02-22 16:42:00,
2013-02-22 11:47:00,55.0,53.3,30.16,NNE,31,10.0,13.0,94,0.02,,---,0.02,VWS V14.01,2013-02-22 16:47:00,
2013-02-22 11:57:00,54.8,53.4,30.15,NE,41,6.0,10.0,95,0.03,,---,0.03,VWS V14.01,2013-02-22 16:57:00,
2013-02-22 12:02:00,54.6,53.2,30.14,NNE,31,10.0,12.0,95,0.03,,---,0.03,VWS V14.01,2013-02-22 17:02:00,
2013-02-22 12:07:00,54.4,53.0,30.15,North,355,10.0,15.0,95,0.04,,---,0.04,VWS V14.01,2013-02-22 17:07:00,
2013-02-22 12:17:00,54.4,53.3,30.13,NE,41,13.0,16.0,96,0.06,,---,0.07,VWS V14.01,2013-02-22 17:17:00,
2013-02-22 12:27:00,54.7,53.6,30.13,NE,39,13.0,14.0,96,0.10,,---,0.11,VWS V14.01,2013-02-22 17:27:00,
2013-02-22 12:32:00,54.6,53.5,30.15,NNW,342,8.0,13.0,96,0.10,,---,0.11,VWS V14.01,2013-02-22 17:32:00,
2013-02-22 12:42:00,54.3,53.2,30.16,NNW,343,3.0,10.0,96,0.18,,---,0.20,VWS V14.01,2013-02-22 17:42:00,
2013-02-22 12:47:00,54.4,53.6,30.15,NE,34,6.0,9.0,97,0.25,,---,0.27,VWS V14.01,2013-02-22 17:47:00,
2013-02-22 12:57:00,54.7,53.9,30.15,NE,37,4.0,6.0,97,0.30,,---,0.32,VWS V14.01,2013-02-22 17:57:00,
2013-02-22 13:02:00,54.9,54.1,30.13,East,94,4.0,8.0,97,0.29,,---,0.32,VWS V14.01,2013-02-22 18:02:00,
2013-02-22 13:12:00,55.6,54.8,30.11,ENE,74,10.0,11.0,97,0.29,,---,0.33,VWS V14.01,2013-02-22 18:12:00,
2013-02-22 13:17:00,56.1,55.5,30.10,ENE,75,10.0,15.0,98,0.29,,---,0.34,VWS V14.01,2013-02-22 18:17:00,
2013-02-22 13:22:00,56.5,55.9,30.09,ENE,75,12.0,15.0,98,0.27,,---,0.34,VWS V14.01,2013-02-22 18:22:00,
2013-02-22 13:27:00,57.0,56.4,30.09,East,96,10.0,12.0,98,0.24,,---,0.34,VWS V14.01,2013-02-22 18:27:00,
2013-02-22 13:32:00,57.5,56.9,30.08,East,88,8.0,12.0,98,0.23,,---,0.34,VWS V14.01,2013-02-22 18:32:00,
2013-02-22 13:42:00,58.6,58.0,30.05,SE,127,9.0,17.0,98,0.21,,---,0.35,VWS V14.01,2013-02-22 18:42:00,
2013-02-22 13:47:00,59.2,58.6,30.05,East,91,14.0,16.0,98,0.15,,---,0.35,VWS V14.01,2013-02-22 18:47:00,
2013-02-22 13:52:00,60.0,59.4,30.05,East,84,9.0,16.0,98,0.08,,---,0.35,VWS V14.01,2013-02-22 18:52:00,
2013-02-22 13:57:00,60.5,59.9,30.04,ESE,105,13.0,18.0,98,0.05,,---,0.35,VWS V14.01,2013-02-22 18:57:00,
2013-02-22 14:02:00,60.8,60.2,30.04,East,86,8.0,18.0,98,0.03,,---,0.35,VWS V14.01,2013-02-22 19:02:00,
2013-02-22 14:12:00,61.4,60.8,30.06,ESE,104,9.0,13.0,98,0.02,,---,0.35,VWS V14.01,2013-02-22 19:12:00,
2013-02-22 14:17:00,61.6,61.0,30.06,ESE,103,6.0,11.0,98,0.02,,---,0.35,VWS V14.01,2013-02-22 19:17:00,
2013-02-22 14:22:00,61.7,60.8,30.06,ENE,75,6.0,10.0,97,0.01,,---,0.35,VWS V14.01,2013-02-22 19:22:00,
2013-02-22 14:27:00,61.6,60.7,30.05,East,101,9.0,11.0,97,0.01,,---,0.35,VWS V14.01,2013-02-22 19:27:00,
2013-02-22 14:32:00,61.6,60.7,30.06,ESE,109,8.0,11.0,97,0.01,,---,0.35,VWS V14.01,2013-02-22 19:32:00,
2013-02-22 14:37:00,61.5,60.6,30.07,East,91,6.0,11.0,97,0.01,,---,0.35,VWS V14.01,2013-02-22 19:37:00,
2013-02-22 14:47:00,61.4,60.2,30.07,East,86,5.0,11.0,96,0.00,,---,0.35,VWS V14.01,2013-02-22 19:47:00,
2013-02-22 14:52:00,61.3,60.2,30.07,ESE,110,6.0,10.0,96,0.00,,---,0.35,VWS V14.01,2013-02-22 19:52:00,
2013-02-22 14:57:00,61.3,60.2,30.06,East,101,7.0,12.0,96,0.00,,---,0.35,VWS V14.01,2013-02-22 19:57:00,
2013-02-22 15:02:00,61.2,60.0,30.06,ESE,106,6.0,11.0,96,0.00,,---,0.35,VWS V14.01,2013-02-22 20:02:00,
2013-02-22 15:12:00,61.3,60.2,30.06,East,89,9.0,9.0,96,0.00,,---,0.35,VWS V14.01,2013-02-22 20:12:00,
2013-02-22 15:17:00,61.4,60.2,30.06,ESE,107,6.0,9.0,96,0.00,,---,0.35,VWS V14.01,2013-02-22 20:17:00,
2013-02-22 15:22:00,61.3,60.2,30.06,East,98,7.0,8.0,96,0.00,,---,0.35,VWS V14.01,2013-02-22 20:22:00,
2013-02-22 15:27:00,61.4,60.2,30.06,SE,134,4.0,8.0,96,0.00,,---,0.35,VWS V14.01,2013-02-22 20:27:00,
2013-02-22 15:32:00,61.5,60.3,30.06,East,98,6.0,7.0,96,0.00,,---,0.35,VWS V14.01,2013-02-22 20:32:00,
2013-02-22 15:42:00,62.0,61.1,30.07,SE,143,5.0,7.0,97,0.00,,---,0.35,VWS V14.01,2013-02-22 20:42:00,
2013-02-22 15:52:00,63.2,62.0,30.06,SE,138,6.0,10.0,96,0.00,,---,0.35,VWS V14.01,2013-02-22 20:52:00,
2013-02-22 16:02:00,63.3,62.1,30.06,ESE,105,4.0,7.0,96,0.00,,---,0.35,VWS V14.01,2013-02-22 21:02:00,
2013-02-22 16:07:00,63.3,62.1,30.06,ESE,107,6.0,6.0,96,0.00,,---,0.35,VWS V14.01,2013-02-22 21:07:00,
2013-02-22 16:12:00,63.3,62.1,30.05,East,91,5.0,8.0,96,0.00,,---,0.35,VWS V14.01,2013-02-22 21:12:00,
2013-02-22 16:17:00,63.3,62.1,30.05,ESE,120,6.0,8.0,96,0.00,,---,0.35,VWS V14.01,2013-02-22 21:17:00,
2013-02-22 16:22:00,63.2,62.0,30.05,East,93,4.0,7.0,96,0.00,,---,0.35,VWS V14.01,2013-02-22 21:22:00,
2013-02-22 16:27:00,63.3,62.1,30.05,East,84,4.0,8.0,96,0.00,,---,0.35,VWS V14.01,2013-02-22 21:27:00,
2013-02-22 16:32:00,63.2,62.0,30.05,SE,138,7.0,7.0,96,0.00,,---,0.35,VWS V14.01,2013-02-22 21:32:00,
2013-02-22 16:37:00,63.2,62.0,30.05,SE,125,6.0,8.0,96,0.00,,---,0.35,VWS V14.01,2013-02-22 21:37:00,
2013-02-22 16:42:00,63.2,62.0,30.05,SE,139,8.0,11.0,96,0.00,,---,0.35,VWS V14.01,2013-02-22 21:42:00,
2013-02-22 16:52:00,62.9,61.8,30.04,ESE,117,5.0,10.0,96,0.00,,---,0.35,VWS V14.01,2013-02-22 21:52:00,
2013-02-22 16:57:00,62.8,61.7,30.04,SE,131,8.0,11.0,96,0.00,,---,0.35,VWS V14.01,2013-02-22 21:57:00,
2013-02-22 17:07:00,63.0,62.1,30.04,SSE,163,7.0,10.0,97,0.00,,---,0.35,VWS V14.01,2013-02-22 22:07:00,
2013-02-22 17:12:00,63.1,62.2,30.04,SSE,153,10.0,11.0,97,0.00,,---,0.35,VWS V14.01,2013-02-22 22:12:00,
2013-02-22 17:22:00,63.0,61.8,30.04,ESE,114,4.0,10.0,96,0.00,,---,0.35,VWS V14.01,2013-02-22 22:22:00,
2013-02-22 17:27:00,63.0,62.1,30.04,SE,133,5.0,9.0,97,0.00,,---,0.35,VWS V14.01,2013-02-22 22:27:00,
2013-02-22 17:32:00,63.2,62.3,30.05,SE,142,4.0,7.0,97,0.00,,---,0.35,VWS V14.01,2013-02-22 22:32:00,
2013-02-22 17:42:00,63.4,62.5,30.05,SE,136,7.0,9.0,97,0.00,,---,0.35,VWS V14.01,2013-02-22 22:42:00,
2013-02-22 17:47:00,63.5,62.3,30.05,SE,129,8.0,8.0,96,0.00,,---,0.35,VWS V14.01,2013-02-22 22:47:00,
2013-02-22 17:52:00,63.5,62.3,30.05,SE,145,6.0,9.0,96,0.00,,---,0.35,VWS V14.01,2013-02-22 22:52:00,
2013-02-22 18:02:00,63.7,62.5,30.04,SE,127,3.0,8.0,96,0.00,,---,0.35,VWS V14.01,2013-02-22 23:02:00,
2013-02-22 18:07:00,63.8,62.9,30.04,SE,131,5.0,6.0,97,0.00,,---,0.35,VWS V14.01,2013-02-22 23:07:00,
2013-02-22 18:12:00,64.0,63.1,30.05,SE,129,4.0,6.0,97,0.00,,---,0.35,VWS V14.01,2013-02-22 23:12:00,
2013-02-22 18:17:00,64.1,63.2,30.05,SE,136,5.0,6.0,97,0.00,,---,0.35,VWS V14.01,2013-02-22 23:17:00,
2013-02-22 18:22:00,64.2,63.3,30.05,SE,143,3.0,10.0,97,0.00,,---,0.35,VWS V14.01,2013-02-22 23:22:00,
2013-02-22 18:27:00,64.1,62.9,30.04,SSE,148,4.0,8.0,96,0.00,,---,0.35,VWS V14.01,2013-02-22 23:27:00,
2013-02-22 18:32:00,63.9,62.7,30.04,SE,134,8.0,9.0,96,0.00,,---,0.35,VWS V14.01,2013-02-22 23:32:00,
2013-02-22 18:37:00,63.9,62.7,30.05,SE,136,2.0,8.0,96,0.00,,---,0.35,VWS V14.01,2013-02-22 23:37:00,
2013-02-22 18:42:00,64.0,63.1,30.05,SE,129,3.0,5.0,97,0.00,,---,0.35,VWS V14.01,2013-02-22 23:42:00,
2013-02-22 18:47:00,63.9,62.7,30.04,SE,138,6.0,6.0,96,0.00,,---,0.35,VWS V14.01,2013-02-22 23:47:00,
2013-02-22 18:52:00,63.9,63.0,30.05,SE,131,2.0,6.0,97,0.00,,---,0.35,VWS V14.01,2013-02-22 23:52:00,
2013-02-22 18:57:00,63.9,63.0,30.05,SE,131,0.0,3.0,97,0.00,,---,0.35,VWS V14.01,2013-02-22 23:57:00,
2013-02-22 19:02:00,63.8,62.9,30.05,NW,323,2.0,4.0,97,0.00,,---,0.35,VWS V14.01,2013-02-23 00:02:00,
2013-02-22 19:07:00,63.3,62.1,30.05,NW,322,4.0,6.0,96,0.00,,---,0.35,VWS V14.01,2013-02-23 00:07:00,
2013-02-22 19:12:00,63.2,62.3,30.04,NNW,348,0.0,4.0,97,0.00,,---,0.35,VWS V14.01,2013-02-23 00:12:00,
2013-02-22 19:17:00,63.0,62.1,30.05,NNW,348,0.0,0.0,97,0.00,,---,0.35,VWS V14.01,2013-02-23 00:17:00,
2013-02-22 19:22:00,62.8,61.7,30.05,NW,308,1.0,2.0,96,0.00,,---,0.35,VWS V14.01,2013-02-23 00:22:00,
2013-02-22 19:27:00,62.2,61.0,30.05,WNW,295,0.0,4.0,96,0.00,,---,0.35,VWS V14.01,2013-02-23 00:27:00,
2013-02-22 19:37:00,61.4,60.5,30.05,WSW,253,1.0,1.0,97,0.00,,---,0.35,VWS V14.01,2013-02-23 00:37:00,
2013-02-22 19:42:00,61.3,60.4,30.05,WSW,256,1.0,1.0,97,0.00,,---,0.35,VWS V14.01,2013-02-23 00:42:00,
2013-02-22 19:52:00,61.3,60.7,30.05,SW,232,0.0,1.0,98,0.00,,---,0.35,VWS V14.01,2013-02-23 00:52:00,
2013-02-22 19:57:00,61.4,60.8,30.05,WNW,284,3.0,3.0,98,0.00,,---,0.35,VWS V14.01,2013-02-23 00:57:00,
2013-02-22 20:02:00,60.8,60.0,30.06,NW,317,10.0,13.0,97,0.00,,---,0.35,VWS V14.01,2013-02-23 01:02:00,
2013-02-22 20:07:00,59.8,58.7,30.07,NW,311,7.0,14.0,96,0.00,,---,0.35,VWS V14.01,2013-02-23 01:07:00,
2013-02-22 20:17:00,58.8,58.0,30.06,NNW,329,0.0,2.0,97,0.00,,---,0.35,VWS V14.01,2013-02-23 01:17:00,
2013-02-22 20:22:00,58.9,58.3,30.06,NW,312,1.0,2.0,98,0.00,,---,0.35,VWS V14.01,2013-02-23 01:22:00,
2013-02-22 20:27:00,58.7,57.8,30.07,NW,324,10.0,10.0,97,0.00,,---,0.35,VWS V14.01,2013-02-23 01:27:00,
2013-02-22 20:37:00,57.7,56.9,30.07,NNW,343,6.0,7.0,97,0.00,,---,0.35,VWS V14.01,2013-02-23 01:37:00,
2013-02-22 20:42:00,57.2,56.4,30.07,North,8,7.0,8.0,97,0.00,,---,0.35,VWS V14.01,2013-02-23 01:42:00,
2013-02-22 20:47:00,56.8,56.0,30.07,NE,34,2.0,7.0,97,0.00,,---,0.35,VWS V14.01,2013-02-23 01:47:00,
2013-02-22 20:52:00,56.6,55.8,30.07,NE,41,3.0,8.0,97,0.00,,---,0.35,VWS V14.01,2013-02-23 01:52:00,
2013-02-22 20:57:00,56.5,55.7,30.07,NW,317,5.0,5.0,97,0.00,,---,0.35,VWS V14.01,2013-02-23 01:57:00,
2013-02-22 21:02:00,56.1,55.3,30.07,NNE,25,2.0,7.0,97,0.00,,---,0.35,VWS V14.01,2013-02-23 02:02:00,
2013-02-22 21:07:00,55.7,54.9,30.07,NNE,31,2.0,5.0,97,0.00,,---,0.35,VWS V14.01,2013-02-23 02:07:00,
2013-02-22 21:12:00,55.6,55.0,30.07,NE,51,4.0,7.0,98,0.00,,---,0.35,VWS V14.01,2013-02-23 02:12:00,
2013-02-22 21:17:00,55.6,55.0,30.06,East,79,1.0,4.0,98,0.00,,---,0.35,VWS V14.01,2013-02-23 02:17:00,
2013-02-22 21:22:00,55.6,55.0,30.06,NNE,24,2.0,3.0,98,0.00,,---,0.35,VWS V14.01,2013-02-23 02:22:00,
2013-02-22 21:27:00,55.7,55.2,30.07,NNW,338,4.0,5.0,98,0.00,,---,0.35,VWS V14.01,2013-02-23 02:27:00,
2013-02-22 21:32:00,55.6,55.0,30.07,NNE,30,4.0,6.0,98,0.00,,---,0.35,VWS V14.01,2013-02-23 02:32:00,
2013-02-22 21:37:00,55.5,55.0,30.07,NNW,342,4.0,7.0,98,0.00,,---,0.35,VWS V14.01,2013-02-23 02:37:00,
2013-02-22 21:42:00,55.3,54.8,30.07,NNW,336,5.0,8.0,98,0.00,,---,0.35,VWS V14.01,2013-02-23 02:42:00,
2013-02-22 21:47:00,54.9,54.3,30.08,North,349,2.0,9.0,98,0.00,,---,0.35,VWS V14.01,2013-02-23 02:47:00,
2013-02-22 21:52:00,54.7,54.2,30.08,NNE,17,7.0,8.0,98,0.00,,---,0.35,VWS V14.01,2013-02-23 02:52:00,
2013-02-22 21:57:00,54.5,54.0,30.08,North,8,5.0,7.0,98,0.00,,---,0.35,VWS V14.01,2013-02-23 02:57:00,
2013-02-22 22:02:00,54.2,53.7,30.08,NW,322,6.0,8.0,98,0.00,,---,0.35,VWS V14.01,2013-02-23 03:02:00,
2013-02-22 22:12:00,53.8,53.2,30.07,NNE,23,4.0,7.0,98,0.00,,---,0.35,VWS V14.01,2013-02-23 03:12:00,
2013-02-22 22:22:00,53.5,53.0,30.07,NNE,18,4.0,7.0,98,0.00,,---,0.35,VWS V14.01,2013-02-23 03:22:00,
2013-02-22 22:27:00,53.4,52.8,30.07,NNE,20,1.0,6.0,98,0.00,,---,0.35,VWS V14.01,2013-02-23 03:27:00,
2013-02-22 22:32:00,53.3,52.8,30.07,WNW,298,3.0,5.0,98,0.00,,---,0.35,VWS V14.01,2013-02-23 03:32:00,
2013-02-22 22:37:00,53.0,52.5,30.08,NW,309,3.0,6.0,98,0.00,,---,0.35,VWS V14.01,2013-02-23 03:37:00,
2013-02-22 22:42:00,52.8,52.2,30.07,NNW,334,3.0,6.0,98,0.00,,---,0.35,VWS V14.01,2013-02-23 03:42:00,
2013-02-22 22:47:00,52.5,52.0,30.08,NW,324,6.0,9.0,98,0.00,,---,0.35,VWS V14.01,2013-02-23 03:47:00,
2013-02-22 22:52:00,52.3,51.8,30.08,North,356,5.0,9.0,98,0.01,,---,0.36,VWS V14.01,2013-02-23 03:52:00,
2013-02-22 22:57:00,52.2,51.7,30.08,NW,321,7.0,9.0,98,0.01,,---,0.36,VWS V14.01,2013-02-23 03:57:00,
2013-02-22 23:02:00,51.9,51.4,30.08,NW,313,3.0,10.0,98,0.01,,---,0.36,VWS V14.01,2013-02-23 04:02:00,
2013-02-22 23:07:00,51.6,51.1,30.08,NNE,15,4.0,8.0,98,0.01,,---,0.36,VWS V14.01,2013-02-23 04:07:00,
2013-02-22 23:12:00,51.4,50.9,30.07,North,4,5.0,5.0,98,0.01,,---,0.36,VWS V14.01,2013-02-23 04:12:00,
2013-02-22 23:17:00,51.1,50.6,30.07,North,1,4.0,8.0,98,0.01,,---,0.36,VWS V14.01,2013-02-23 04:17:00,
2013-02-22 23:22:00,50.9,50.4,30.07,NNE,20,3.0,8.0,98,0.01,,---,0.36,VWS V14.01,2013-02-23 04:22:00,
2013-02-22 23:32:00,50.4,49.9,30.06,North,8,5.0,7.0,98,0.01,,---,0.36,VWS V14.01,2013-02-23 04:32:00,
2013-02-22 23:37:00,50.3,49.8,30.06,NNW,338,4.0,7.0,98,0.01,,---,0.36,VWS V14.01,2013-02-23 04:37:00,
2013-02-22 23:42:00,50.2,49.7,30.06,NNE,18,6.0,7.0,98,0.01,,---,0.36,VWS V14.01,2013-02-23 04:42:00,
2013-02-22 23:47:00,50.2,49.7,30.05,NNE,29,7.0,7.0,98,0.02,,---,0.37,VWS V14.01,2013-02-23 04:47:00,
2013-02-22 23:52:00,50.0,49.5,30.04,NE,46,4.0,7.0,98,0.02,,---,0.37,VWS V14.01,2013-02-23 04:52:00,